SPACEBEE-164 (55091 NORAD) Tracking and Keplerian Element Data

This shows tracking and keplerian element data for the satellite.

Feedback or suggestion? Click here.




ElementValue
Catalog55091
NameSPACEBEE-164
Epoch Orbit1886
Epoch Day127.10627395
Epoch Year2023
RAAN187.5847
Inclination97.4799
Eccentricity0.0016739
Argument of Perigee143.6614
Mean Anonmoly216.576
Mean Motion15.18411954
Decay Rate0.00023417
L11 55091U 23001CL 23127.10627395 .00023417 00000+0 11347-2 0 9998
L22 55091 97.4799 187.5847 0016739 143.6614 216.5760 15.18411954 18867



Live tracking and technical data element details for SPACEBEE-164 (NORAD 55091). SPACEBEE-164 can be tracked NOW for your location showing map with azimuth and elevation plus other details from your city location.







IsCatalogInMostPopularTable: catalog: 55091, numindb: -1

Insert: records affected: 1


GetName: 55091 SPACEBEE-164

Hit Count: inserted at: Mon, 05 Jun 2023 19:06:16 GMT